(298804) = 2004 RZ13

Discovered at Siding Spring on 2004-09-06 by Siding Spring Survey.

Orbit

Orbit type: Main Belt

Note: WebGL enabled browser required.

epoch2024-03-31.0
epoch JD2460400.5
perihelion date2021-10-16.22011
perihelion JD2459503.72011
argument of perihelion (°)36.66079
ascending node (°)302.18913
inclination (°)1.97270
eccentricity0.1548959
perihelion distance (AU)1.9203754
Tisserand w.r.t. Jupiter3.6
ΔV w.r.t. Earth (km/sec)8.6
semimajor axis (AU)2.2723538
mean anomaly (°)258.03332
mean daily motion (°/day)0.28773320
aphelion distance (AU)2.624
period (years)3.43
P-vector [x]0.93233909
P-vector [y]-0.33938715
P-vector [z]-0.12474043
Q-vector [x]0.36040967
Q-vector [y]0.84446263
Q-vector [z]0.39621678
absolute magnitude17.79
phase slope0.15
uncertainty0
referenceMPEC 2024-E179
observations used268
oppositions12
arc length (days)7701
first opposition used2001
last opposition used2023
residual rms (arc-secs)0.87
perturbers coarse indicatorM-v
perturbers precise indicator003Ek
first observation date used2001-12-14.0
last observation date used2023-01-14.0
computer nameMPCLINUX
JD of orbit computation2456376.467196
perihelion JD uncertainty (days)7.4977E-05
argument of perihelion uncertainty (°)2.4733E-04
ascending node uncertainty (°)2.4628E-04
inclination uncertainty (°)7.3963E-06
eccentricity uncertainty 1.6435E-07
perihelion distance uncertainty (AU)3.6182E-07
Minimum Orbit Intersection Distances (in AU)
for orbit epoch: 2460400.5, reference: E2024-GD4
Mercury1.52314
Venus1.19631
Earth0.91159
Mars0.54509
Jupiter2.73047
Saturn6.57514
Uranus15.8183
Neptune27.6365

Observations

277 total observations over interval: 2001 12 14.17281 – 2023 01 14.418598
These data are available for download (format description).

Date (UT) J2000 RA J2000 Dec Magn Location Ref
2001 12 14.17281 04 00 55.92 +23 22 03.6 21.3   644 – Palomar Mountain/NEAT MPS 167072
2001 12 14.25060 04 00 51.51 +23 21 46.2 21.0   644 – Palomar Mountain/NEAT MPS 167072
2001 12 14.31671 04 00 47.74 +23 21 30.9 21.4   644 – Palomar Mountain/NEAT MPS 167072
2004 07 16.33911 22 59 36.99 -05 18 43.3 18.8 R 807 – Cerro Tololo Observatory, La Serena MPS 167072
2004 07 16.39057 22 59 37.54 -05 18 33.1   807 – Cerro Tololo Observatory, La Serena MPS 167072
2004 08 23.34434 22 45 29.47 -05 27 50.6 19.5 V 691 – Steward Observatory, Kitt Peak-Spacewatch MPS 114422
2004 08 23.38055 22 45 27.49 -05 27 57.7 19.5 V 691 – Steward Observatory, Kitt Peak-Spacewatch MPS 114422
2004 08 23.40708 22 45 26.05 -05 28 03.2 19.5 V 691 – Steward Observatory, Kitt Peak-Spacewatch MPS 114422
2004 09 06.61801 22 32 48.81 -06 22 00.0 19.1 R E12 – Siding Spring Survey MPS 112818
2004 09 06.62363 22 32 48.50 -06 22 01.6 19.4 R E12 – Siding Spring Survey MPS 112818
2004 09 06.62927 22 32 48.14 -06 22 02.5 18.4 R E12 – Siding Spring Survey MPS 112818
2004 09 06.63490 22 32 47.89 -06 22 03.8 19.2 R E12 – Siding Spring Survey MPS 112818
2004 09 08.17986 22 31 28.55 -06 28 19.1 19.5   704 – Lincoln Laboratory ETS, New Mexico MPS 112818
2004 09 08.19078 22 31 28.06 -06 28 21.6 19.7   704 – Lincoln Laboratory ETS, New Mexico MPS 112818
2004 09 08.21286 22 31 26.78 -06 28 26.3 19.6   704 – Lincoln Laboratory ETS, New Mexico MPS 112818
2004 09 09.17825 22 30 37.98 -06 32 14.0 19.0   704 – Lincoln Laboratory ETS, New Mexico MPS 112818
2004 09 09.18945 22 30 37.44 -06 32 16.6 19.4   704 – Lincoln Laboratory ETS, New Mexico MPS 112818
2004 09 09.20060 22 30 36.84 -06 32 19.1 19.5   704 – Lincoln Laboratory ETS, New Mexico MPS 112818
2004 09 09.21239 22 30 36.25 -06 32 21.4 19.5   704 – Lincoln Laboratory ETS, New Mexico MPS 112818
2004 09 09.22355 22 30 35.59 -06 32 25.4 19.7   704 – Lincoln Laboratory ETS, New Mexico MPS 112818
2004 09 09.28231 22 30 32.53 -06 32 37.5 18.8 R 699 – Lowell Observatory-LONEOS MPS 113027
2004 09 09.29203 22 30 31.96 -06 32 40.2   699 – Lowell Observatory-LONEOS MPS 113027
2004 09 09.30175 22 30 31.44 -06 32 43.7   699 – Lowell Observatory-LONEOS MPS 113027
2004 09 09.31146 22 30 30.96 -06 32 46.0   699 – Lowell Observatory-LONEOS MPS 113027
2004 09 13.17811 22 27 24.70 -06 47 22.4 20.2 C 704 – Lincoln Laboratory ETS, New Mexico MPS 290195
2004 09 13.18959 22 27 24.04 -06 47 26.7 18.8 C 704 – Lincoln Laboratory ETS, New Mexico MPS 290195
2004 09 13.20114 22 27 23.74 -06 47 28.9 18.5 C 704 – Lincoln Laboratory ETS, New Mexico MPS 290195
2004 09 13.21261 22 27 23.06 -06 47 31.2 19.0 C 704 – Lincoln Laboratory ETS, New Mexico MPS 290195
2004 09 13.22410 22 27 22.61 -06 47 32.5 19.2 C 704 – Lincoln Laboratory ETS, New Mexico MPS 290195
2004 09 17.21407 22 24 29.32 -07 01 27.6 19.4   704 – Lincoln Laboratory ETS, New Mexico MPS 114422
2004 09 17.22581 22 24 28.94 -07 01 30.1 19.4   704 – Lincoln Laboratory ETS, New Mexico MPS 114422
2004 09 17.23758 22 24 28.37 -07 01 31.7 19.6   704 – Lincoln Laboratory ETS, New Mexico MPS 114422
2004 09 18.51625 22 23 37.81 -07 05 31.7 19.2 R E12 – Siding Spring Survey MPS 114422
2004 09 18.52468 22 23 37.40 -07 05 32.5 18.9 R E12 – Siding Spring Survey MPS 114422
2004 09 18.53310 22 23 37.08 -07 05 33.8 19.4 R E12 – Siding Spring Survey MPS 114422
2004 09 18.54153 22 23 36.86 -07 05 35.6 19.2 R E12 – Siding Spring Survey MPS 114422
2004 09 22.31594 22 21 23.50 -07 16 49.1 19.9 V 691 – Steward Observatory, Kitt Peak-Spacewatch MPS 114422
2004 09 22.34350 22 21 22.53 -07 16 53.6 20.0 V 691 – Steward Observatory, Kitt Peak-Spacewatch MPS 114422
2004 09 22.37231 22 21 21.54 -07 16 57.9 20.1 V 691 – Steward Observatory, Kitt Peak-Spacewatch MPS 114422
2006 01 22.45955 09 31 22.98 +14 01 59.5 22.5 V G96 – Mt. Lemmon Survey MPS 167072
2006 01 22.46462 09 31 22.72 +14 01 59.7 21.0 V G96 – Mt. Lemmon Survey MPS 167072
2006 01 22.46969 09 31 22.40 +14 02 01.8 21.9 V G96 – Mt. Lemmon Survey MPS 167072
2006 01 22.47476 09 31 22.04 +14 02 02.6 22.4 V G96 – Mt. Lemmon Survey MPS 167072
2006 02 04.17873 09 18 15.26 +14 53 56.1 21.0 V 691 – Steward Observatory, Kitt Peak-Spacewatch MPS 167072
2006 02 04.19941 09 18 13.87 +14 54 01.6 20.9 V 691 – Steward Observatory, Kitt Peak-Spacewatch MPS 167072
2006 02 04.21669 09 18 12.73 +14 54 06.2 21.1 V 691 – Steward Observatory, Kitt Peak-Spacewatch MPS 167072
2006 02 07.36052 09 14 48.62 +15 07 17.9 21.0 V G96 – Mt. Lemmon Survey MPS 167072
2006 02 07.36502 09 14 48.30 +15 07 18.4 20.5 V G96 – Mt. Lemmon Survey MPS 167072
2006 02 07.36936 09 14 48.01 +15 07 21.1 20.7 V G96 – Mt. Lemmon Survey MPS 167072
2006 02 07.37381 09 14 47.65 +15 07 21.3 20.9 V G96 – Mt. Lemmon Survey MPS 167072
2008 11 20.44206 06 23 42.96 +25 28 05.8 20.9 V 691 – Steward Observatory, Kitt Peak-Spacewatch MPS 265223
2008 11 20.45972 06 23 42.20 +25 28 06.5 21.2 V 691 – Steward Observatory, Kitt Peak-Spacewatch MPS 265223
2008 11 20.47737 06 23 41.46 +25 28 06.4 20.8 V 691 – Steward Observatory, Kitt Peak-Spacewatch MPS 265223
2011 09 06.58833 01 11 45.931 +11 03 14.60 20.8 g F51 – Pan-STARRS 1, Haleakala MPS 391091
2011 09 06.60011 01 11 45.660 +11 03 14.70 20.5 g F51 – Pan-STARRS 1, Haleakala MPS 391091
2011 09 20.38385 01 04 04.22 +10 40 30.6 20.2 V 703 – Catalina Sky Survey MPS 391091
2011 09 20.39066 01 04 03.86 +10 40 28.3 19.5 V 703 – Catalina Sky Survey MPS 391091
2011 09 20.39742 01 04 03.61 +10 40 29.6 20.1 V 703 – Catalina Sky Survey MPS 391091
2011 09 20.40428 01 04 03.25 +10 40 27.6 20.1 V 703 – Catalina Sky Survey MPS 391091
2011 09 22.22591 01 02 39.31 +10 34 24.9   691 – Steward Observatory, Kitt Peak-Spacewatch MPS 391091
2011 09 22.24370 01 02 38.46 +10 34 21.2   691 – Steward Observatory, Kitt Peak-Spacewatch MPS 391091
2011 09 22.26148 01 02 37.54 +10 34 17.6   691 – Steward Observatory, Kitt Peak-Spacewatch MPS 391091
2011 09 29.31662 00 56 34.62 +10 05 19.4 19.4 V G96 – Mt. Lemmon Survey MPS 392623
2011 09 29.32463 00 56 34.15 +10 05 17.2 19.4 V G96 – Mt. Lemmon Survey MPS 392623
2011 09 29.33262 00 56 33.72 +10 05 14.8 19.5 V G96 – Mt. Lemmon Survey MPS 392623
2011 09 29.34064 00 56 33.25 +10 05 12.5 19.5 V G96 – Mt. Lemmon Survey MPS 392623
2011 10 01.52581 00 54 32.674 +09 54 43.49 20.2 g F51 – Pan-STARRS 1, Haleakala MPS 394208
2011 10 01.53852 00 54 31.921 +09 54 39.41 20.0 g F51 – Pan-STARRS 1, Haleakala MPS 394208
2011 10 01.55222 00 54 31.127 +09 54 35.66 19.6 r F51 – Pan-STARRS 1, Haleakala MPS 394208
2011 10 01.56424 00 54 30.414 +09 54 31.87 19.6 r F51 – Pan-STARRS 1, Haleakala MPS 394208
2011 10 25.27624 00 34 14.439 +07 46 27.35 20.0 r F51 – Pan-STARRS 1, Haleakala MPS 398089
2011 10 25.28841 00 34 13.923 +07 46 23.80 20.1 r F51 – Pan-STARRS 1, Haleakala MPS 398089
2011 10 29.29259 00 31 51.764 +07 27 46.34 20.5 g F51 – Pan-STARRS 1, Haleakala MPS 399909
2011 10 29.30514 00 31 51.321 +07 27 43.17 20.6 g F51 – Pan-STARRS 1, Haleakala MPS 399909
2013 02 16.34874 10 17 26.80 +09 00 04.3 20.6 V G96 – Mt. Lemmon Survey MPS 457222
2013 02 16.35531 10 17 26.41 +09 00 06.8 20.5 V G96 – Mt. Lemmon Survey MPS 457222
2013 02 16.36184 10 17 25.94 +09 00 07.7 20.0 V G96 – Mt. Lemmon Survey MPS 457222
2013 02 16.36854 10 17 25.54 +09 00 10.5 21.1 V G96 – Mt. Lemmon Survey MPS 457222
2013 03 04.31937 10 01 21.287 +10 20 18.76 21.2 w F51 – Pan-STARRS 1, Haleakala MPS 459132
2013 03 04.33361 10 01 20.456 +10 20 22.88 21.2 w F51 – Pan-STARRS 1, Haleakala MPS 459132
2013 03 04.34785 10 01 19.617 +10 20 26.78 21.3 w F51 – Pan-STARRS 1, Haleakala MPS 459132
2013 03 13.21632 09 53 33.57 +10 59 16.0 21.1 V G96 – Mt. Lemmon Survey MPS 460445
2013 03 13.22427 09 53 33.18 +10 59 17.5 20.9 V G96 – Mt. Lemmon Survey MPS 460445
2013 03 13.22959 09 53 32.92 +10 59 19.5 21.3 V G96 – Mt. Lemmon Survey MPS 460445
2013 03 13.23493 09 53 32.67 +10 59 20.7 21.2 V G96 – Mt. Lemmon Survey MPS 460445
2015 11 06.49187 07 47 51.25 +22 27 15.3 22.3 V G96 – Mt. Lemmon Survey MPS 644830
2015 11 06.49700 07 47 51.43 +22 27 14.9 22.7 V G96 – Mt. Lemmon Survey MPS 644830
2015 11 06.50212 07 47 51.55 +22 27 14.5 22.6 V G96 – Mt. Lemmon Survey MPS 644830
